Wind_Speed
13 13 13 12 12 13 13 12 13 12 13 13 13 12 12 11 10 9 9 9 9 8 7 7 6 6 6 5 4 4 3 2 2 2 2 1 1 1 1 2 2 2 2
15 15 15 15 14 14 15 15 15 14 14 14 14 14 13 12 11 11 10 10 9 9 8 7 7 7 7 6 5 4 4 3 3 2 2 2 1 1 1 2 2 2 2
18 17 17 17 17 16 17 17 17 15 15 15 15 15 15 14 13 12 12 11 10 10 9 9 8 8 8 7 7 6 5 4 3 3 2 2 2 1 2 2 1 2 2
20 20 19 19 19 19 19 18 19 18 17 17 17 16 16 15 15 14 13 13 12 11 11 11 10 9 8 8 7 7 6 5 5 4 3 3 2 2 1 1 1 1 1
22 22 21 21 21 21 21 20 20 20 19 19 18 18 17 16 17 16 15 14 13 13 12 12 11 11 10 9 8 8 8 7 6 5 4 4 3 3 2 2 1 1 1
23 23 23 23 23 23 23 22 22 22 22 21 21 20 19 19 18 18 17 16 15 15 14 13 13 12 11 11 10 9 9 8 7 6 6 5 4 4 3 3 3 3 2
25 25 25 25 25 25 25 25 24 24 24 24 23 22 21 21 20 19 18 18 17 16 16 15 14 14 13 12 11 11 10 9 8 8 7 7 6 5 5 5 4 4 4
26 27 27 27 27 27 28 27 26 26 26 26 25 25 24 22 22 21 20 19 19 18 17 16 16 15 14 14 13 12 11 11 10 9 9 8 8 7 6 6 6 6 5
27 28 29 29 29 29 30 30 29 29 28 28 27 26 25 25 24 23 22 22 20 20 19 18 16 16 16 15 14 13 13 12 11 10 10 10 9 9 8 7 7 6 6
28 28 29 30 30 30 31 31 31 31 30 30 29 28 27 26 26 25 24 24 23 22 21 20 19 17 17 17 16 15 14 13 12 12 11 10 10 10 10 9 8 8 7
30 29 30 31 31 31 31 32 33 33 32 32 31 31 29 28 28 27 26 25 25 24 22 21 21 20 19 19 18 17 16 15 14 14 13 12 11 11 11 10 10 9 9
31 31 32 32 32 33 33 33 33 34 34 34 33 33 32 31 30 29 28 27 26 25 24 23 22 21 21 20 20 19 18 17 17 16 15 14 13 12 12 11 11 11 10
33 33 33 34 34 34 34 34 34 34 35 35 35 35 34 33 32 31 30 29 28 26 25 24 23 23 22 21 21 21 20 19 18 17 16 16 15 14 13 13 12 12 12
36 35 35 35 35 36 35 35 35 35 35 36 36 36 36 35 33 33 32 31 29 28 27 26 26 25 23 22 22 22 22 21 20 19 18 17 16 15 15 14 13 13 12
37 37 36 36 37 37 37 37 37 36 37 38 38 37 37 37 35 34 33 32 31 30 29 28 28 27 25 24 24 23 23 22 21 20 19 19 18 17 16 15 15 14 14
38 38 37 37 37 38 39 39 39 38 38 40 40 39 39 38 37 36 35 33 32 32 31 30 30 28 27 26 25 24 24 24 23 22 21 20 19 19 18 17 16 16 15
40 39 39 38 38 39 39 40 39 39 39 40 41 41 40 40 39 38 37 36 35 34 33 32 32 31 30 29 27 27 26 26 25 24 23 22 21 20 19 19 18 18 17
41 40 40 39 39 40 40 40 39 39 39 40 41 42 42 41 41 40 39 38 37 36 35 34 33 32 31 31 30 29 28 27 27 26 25 24 23 22 21 20 20 20 19
40 41 41 41 40 40 41 40 40 40 40 40 41 41 42 42 42 41 40 39 38 37 35 35 35 34 33 32 31 30 29 29 29 28 27 26 25 24 23 22 22 21 21
41 40 40 40 40 41 41 41 41 40 41 41 42 42 42 43 43 42 41 40 39 38 37 37 36 35 35 34 33 33 32 31 30 30 29 29 28 27 26 25 24 23 23
42 40 40 40 40 41 41 41 41 41 42 42 42 43 44 43 43 43 42 41 41 40 39 39 38 37 36 36 35 34 34 33 32 31 31 31 30 29 28 28 27 26 25
41 41 40 40 40 41 41 42 42 42 43 44 43 43 44 45 45 44 44 43 42 42 41 40 39 39 38 38 37 36 35 34 34 33 32 32 32 31 31 30 29 28 28
41 41 40 40 40 42 42 42 43 43 43 44 45 44 45 45 45 45 45 44 44 43 43 42 41 40 40 39 39 38 37 36 35 35 34 33 33 34 33 32 31 31 30
40 40 39 40 41 42 42 42 42 43 44 44 45 45 46 46 47 46 45 46 45 44 43 44 43 41 41 40 40 39 39 38 37 37 37 36 35 35 35 34 34 33 32
39 40 40 40 40 41 42 42 42 42 44 45 47 47 47 47 48 48 46 46 46 45 45 44 43 43 41 40 41 41 40 40 40 39 38 37 37 37 37 37 36 35 34
38 38 40 40 41 41 42 43 44 43 44 45 47 48 48 49 49 49 48 47 47 47 46 46 45 44 44 43 42 42 42 41 41 40 40 39 38 38 38 38 38 37 36
Wind_Direction
253 252 253 253 250 249 249 249 248 248 246 243 242 241 240 240 236 234 231 228 225 224 223 219 216 211 203 201 199 195 191 190 190 177 159 145 136 126 115 112 101 97 95
255 253 253 252 251 250 249 248 247 247 246 245 244 241 240 240 237 235 234 231 229 228 228 226 224 218 211 207 204 203 205 202 201 199 188 164 160 158 141 124 114 109 103
256 254 252 251 250 250 249 247 246 246 246 246 245 242 240 239 237 234 235 234 233 233 232 233 230 224 219 214 210 210 212 210 210 204 203 183 181 179 162 146 140 122 115
258 256 254 252 250 249 249 246 247 247 246 247 246 243 241 238 235 235 237 237 236 237 236 234 231 228 224 220 217 217 218 217 219 216 214 214 208 206 186 173 172 156 142
259 257 255 252 251 249 248 247 246 246 246 246 247 244 242 239 237 236 238 238 238 239 239 237 233 229 227 225 223 221 221 222 225 225 225 227 226 226 215 213 217 216 235
259 258 257 255 252 249 248 247 246 246 245 245 245 244 242 239 238 238 238 239 240 241 240 237 235 232 230 228 227 227 225 226 228 230 230 234 237 237 232 230 235 243 256
258 258 256 254 252 249 248 247 246 246 245 245 244 243 242 240 239 239 240 241 242 242 241 239 238 235 233 231 229 229 229 231 232 234 234 240 242 244 242 242 246 252 260
257 257 256 254 252 249 248 246 246 245 245 244 243 242 241 240 239 240 240 241 242 241 241 239 238 234 233 233 231 232 233 234 235 236 236 240 244 246 247 249 250 252 260
258 257 256 255 252 249 248 246 245 245 244 243 242 242 241 240 240 240 241 241 243 243 241 238 239 236 234 234 234 234 236 236 237 239 238 239 244 248 250 253 252 251 257
259 257 256 255 252 249 248 245 244 243 243 242 241 241 241 241 241 241 241 242 243 244 244 240 238 237 237 235 236 236 236 236 238 240 241 242 245 248 250 252 253 254 254
260 258 256 256 253 250 248 246 244 243 242 241 240 240 240 240 240 241 241 242 244 244 244 242 239 238 238 237 237 237 236 237 239 241 242 244 248 250 250 251 250 252 253
258 258 257 256 254 251 249 248 246 243 242 241 239 238 238 238 238 241 242 242 243 244 244 243 240 239 239 239 238 238 237 237 239 240 241 243 247 250 252 251 251 250 250
258 257 257 255 253 251 250 249 248 245 243 241 239 238 238 238 239 240 241 242 242 243 244 243 241 240 239 239 239 238 237 238 239 240 240 242 245 248 250 252 252 251 251
258 257 256 255 253 251 250 249 248 246 244 241 239 239 238 237 238 239 240 241 241 242 243 243 242 241 239 240 240 239 238 238 239 240 240 242 244 246 248 250 251 250 252
257 257 256 254 253 251 249 248 248 247 245 242 239 238 237 237 236 238 239 240 240 241 242 243 243 242 240 240 241 241 240 240 238 239 241 242 243 244 246 248 251 251 251
255 255 254 254 252 251 249 248 248 247 245 242 239 237 237 236 236 236 237 238 239 240 241 242 242 242 241 240 241 241 240 240 239 239 240 242 243 244 245 247 248 250 251
254 254 254 254 253 252 250 247 247 246 245 243 240 237 236 236 236 237 237 237 238 240 242 242 242 242 242 241 241 242 242 242 242 241 241 243 243 244 244 246 247 249 251
254 253 253 253 252 251 249 247 246 245 243 242 239 237 236 236 236 237 237 238 238 239 241 243 242 242 241 241 240 240 242 242 242 242 242 241 242 244 244 245 247 249 251
254 253 253 253 252 250 248 246 245 243 241 241 238 236 235 235 235 236 236 237 237 238 240 242 243 242 241 242 240 240 242 243 243 243 241 241 242 244 244 246 248 250 251
254 253 253 252 250 248 246 245 245 244 241 239 238 237 236 235 235 235 236 237 237 238 240 242 243 243 242 242 241 241 241 242 242 242 242 243 243 244 244 246 247 250 252
253 252 251 250 248 247 245 245 244 243 241 239 238 238 237 235 234 235 236 236 237 238 240 242 243 244 243 242 242 242 241 242 242 242 243 244 244 245 246 247 249 251 252
253 252 251 250 248 247 246 245 244 244 241 238 238 237 236 235 234 234 236 236 238 239 241 243 243 244 243 243 243 242 241 241 242 243 244 245 245 246 247 247 250 251 252
252 251 250 250 249 247 246 245 244 243 240 238 237 236 235 235 235 235 236 237 237 239 241 242 243 244 242 242 242 243 243 243 243 244 244 245 246 246 247 248 250 252 252
251 251 250 249 247 246 245 244 244 243 240 239 237 237 236 235 235 235 236 238 239 239 240 242 242 242 242 243 243 243 244 246 246 246 245 245 246 248 248 249 250 251 252
253 252 251 249 247 245 244 243 244 243 241 239 237 236 236 236 236 236 237 237 239 239 240 241 241 242 242 243 243 243 245 245 247 247 246 247 248 249 249 249 250 251 252
254 252 251 249 248 246 245 244 244 243 241 239 237 237 237 237 237 237 237 237 239 240 241 241 242 242 242 243 243 243 244 246 247 247 247 247 248 249 249 249 249 250 252
Height
5847 5847 5848 5848 5848 5849 5849 5850 5850 5851 5852 5852 5853 5853 5854 5854 5855 5855 5856 5856 5856 5856 5856 5857 5857 5857 5857 5857 5857 5857 5857 5857 5857 5857 5857 5856 5856 5856 5855 5855 5854 5854 5854
5844 5844 5845 5845 5846 5846 5847 5848 5848 5849 5850 5850 5851 5852 5852 5853 5853 5854 5854 5855 5855 5855 5856 5856 5856 5856 5856 5856 5857 5857 5857 5857 5857 5857 5857 5856 5856 5856 5855 5855 5855 5854 5854
5841 5841 5842 5842 5843 5844 5844 5845 5846 5846 5847 5848 5849 5850 5851 5851 5852 5852 5853 5854 5854 5854 5855 5855 5855 5855 5855 5856 5856 5856 5857 5857 5857 5857 5856 5856 5856 5856 5855 5855 5855 5854 5854
5837 5838 5838 5839 5840 5840 5841 5842 5843 5844 5845 5846 5847 5848 5848 5849 5850 5851 5851 5852 5852 5853 5853 5854 5854 5854 5855 5855 5855 5856 5856 5856 5856 5856 5856 5856 5856 5855 5855 5855 5855 5854 5854
5833 5833 5834 5835 5836 5836 5837 5839 5840 5841 5842 5843 5844 5845 5846 5847 5848 5848 5849 5850 5850 5851 5852 5852 5853 5853 5854 5854 5854 5855 5855 5855 5855 5855 5855 5855 5855 5855 5855 5855 5854 5854 5854
5828 5829 5829 5830 5831 5832 5833 5835 5836 5837 5838 5839 5840 5842 5843 5844 5845 5846 5847 5847 5848 5849 5850 5850 5851 5852 5852 5853 5853 5853 5854 5854 5854 5855 5855 5855 5855 5855 5854 5854 5854 5854 5854
5822 5823 5824 5825 5826 5827 5828 5830 5831 5833 5834 5835 5836 5838 5839 5840 5842 5843 5844 5845 5846 5846 5847 5848 5849 5850 5850 5851 5851 5852 5852 5853 5853 5853 5854 5854 5854 5854 5853 5853 5853 5853 5853
5816 5816 5817 5818 5820 5821 5823 5824 5826 5828 5829 5831 5832 5834 5835 5837 5838 5839 5840 5841 5842 5844 5845 5846 5846 5847 5848 5849 5849 5850 5851 5851 5852 5852 5852 5852 5852 5852 5852 5852 5852 5852 5852
5809 5810 5810 5811 5813 5815 5816 5818 5819 5821 5823 5825 5827 5829 5831 5833 5834 5836 5837 5838 5839 5840 5841 5842 5843 5844 5845 5846 5847 5848 5848 5849 5850 5850 5851 5851 5851 5851 5851 5851 5851 5851 5851
5802 5802 5803 5804 5805 5807 5809 5811 5812 5815 5817 5819 5821 5824 5826 5828 5830 5831 5833 5834 5835 5837 5838 5839 5840 5841 5842 5843 5844 5845 5846 5847 5848 5848 5849 5849 5849 5849 5849 5849 5849 5850 5850
5794 5795 5796 5797 5798 5800 5802 5803 5805 5808 5810 5813 5815 5817 5820 5822 5824 5826 5828 5830 5831 5832 5834 5835 5836 5838 5839 5840 5841 5842 5843 5844 5845 5846 5846 5847 5847 5847 5847 5847 5848 5848 5848
5787 5787 5788 5789 5790 5792 5794 5796 5798 5800 5802 5805 5808 5811 5813 5816 5818 5821 5823 5825 5827 5828 5829 5831 5832 5834 5835 5836 5838 5839 5840 5841 5842 5843 5844 5844 5844 5845 5845 5845 5846 5846 5846
5778 5779 5780 5781 5782 5784 5786 5788 5790 5792 5794 5797 5800 5803 5806 5809 5812 5815 5817 5819 5821 5823 5825 5826 5828 5829 5831 5832 5834 5835 5836 5838 5839 5840 5841 5841 5842 5842 5842 5843 5843 5844 5844
5769 5770 5771 5772 5774 5775 5777 5779 5781 5783 5786 5789 5792 5795 5798 5802 5805 5808 5811 5813 5815 5817 5819 5821 5823 5825 5826 5828 5829 5831 5832 5833 5835 5836 5837 5838 5839 5839 5840 5840 5841 5841 5842
5758 5760 5761 5763 5764 5766 5768 5770 5772 5774 5777 5779 5783 5786 5790 5794 5797 5801 5804 5806 5809 5811 5814 5816 5818 5820 5821 5823 5824 5826 5828 5829 5830 5832 5833 5834 5835 5836 5836 5837 5838 5838 5839
5748 5749 5751 5753 5755 5756 5758 5760 5762 5764 5767 5769 5773 5777 5781 5785 5789 5793 5796 5799 5802 5804 5807 5809 5812 5814 5816 5818 5819 5821 5823 5824 5826 5827 5829 5830 5831 5832 5833 5834 5835 5835 5836
5737 5739 5740 5742 5744 5746 5747 5749 5752 5754 5756 5759 5763 5767 5772 5776 5780 5784 5788 5791 5794 5797 5800 5802 5805 5807 5810 5812 5813 5815 5817 5819 5821 5822 5824 5825 5827 5828 5829 5830 5831 5832 5832
5725 5727 5729 5731 5733 5734 5736 5739 5741 5744 5746 5749 5753 5757 5762 5767 5771 5775 5779 5783 5786 5789 5792 5795 5797 5800 5802 5805 5807 5809 5811 5813 5815 5817 5819 5820 5822 5823 5825 5826 5827 5828 5829
5714 5716 5717 5719 5721 5723 5726 5728 5731 5733 5736 5739 5743 5747 5751 5756 5761 5766 5770 5774 5778 5781 5784 5787 5790 5792 5795 5798 5800 5802 5805 5807 5809 5811 5813 5815 5817 5818 5820 5821 5822 5823 5824
5702 5704 5706 5708 5710 5712 5715 5718 5721 5723 5725 5729 5733 5737 5742 5747 5752 5756 5761 5765 5769 5772 5776 5779 5782 5785 5787 5790 5793 5795 5798 5800 5802 5804 5806 5809 5811 5813 5814 5816 5817 5818 5819
5690 5692 5695 5697 5699 5702 5705 5708 5710 5713 5715 5719 5723 5727 5732 5737 5742 5746 5751 5755 5759 5763 5767 5770 5773 5776 5779 5782 5785 5787 5790 5792 5795 5797 5799 5802 5804 5806 5808 5809 5811 5812 5814
5678 5681 5683 5686 5688 5691 5694 5697 5700 5702 5705 5709 5712 5717 5721 5727 5731 5736 5741 5745 5750 5754 5757 5760 5764 5767 5770 5773 5776 5779 5781 5785 5787 5790 5792 5795 5797 5799 5801 5803 5804 5806 5807
5666 5669 5672 5674 5677 5680 5682 5685 5688 5690 5693 5698 5702 5706 5711 5716 5721 5726 5731 5735 5739 5743 5747 5750 5754 5757 5761 5764 5767 5770 5773 5776 5779 5782 5784 5787 5789 5791 5793 5795 5797 5798 5800
5655 5657 5660 5663 5665 5668 5671 5674 5676 5679 5683 5687 5692 5696 5700 5705 5711 5715 5720 5725 5729 5733 5736 5740 5744 5747 5751 5754 5757 5760 5764 5767 5770 5773 5776 5778 5781 5783 5785 5787 5789 5790 5792
5644 5646 5648 5651 5654 5656 5659 5662 5665 5668 5671 5676 5680 5685 5689 5694 5699 5704 5709 5713 5718 5722 5726 5729 5733 5737 5740 5744 5747 5750 5753 5757 5760 5763 5766 5769 5772 5774 5776 5778 5780 5782 5784
5633 5634 5637 5640 5642 5645 5647 5650 5654 5657 5660 5664 5669 5673 5678 5683 5688 5692 5697 5702 5706 5710 5714 5718 5722 5726 5730 5733 5736 5740 5743 5746 5750 5752 5755 5758 5761 5764 5766 5768 5770 5773 5775